Location: Detroit
(42.3310°N, 83.0460°W)
Time: 17:54:08
(UTC-04:00)

X-37B - Visible Passes

Search period start: 01 October 2022 00:00
Search period end: 11 October 2022 00:00
Orbit: 329 x 342 km, 45.0° (Epoch: 29 September)

Date Brightness Start Highest point End Pass type
(mag) Time Alt. Az. Time Alt. Az. Time Alt. Az.
01 Oct 1.9 05:35:21 35° NE 05:35:21 35° NE 05:37:24 10° ENE visible
02 Oct 0.8 05:55:00 52° N 05:55:10 53° N 05:58:00 10° E visible
03 Oct 0.3 06:14:42 38° WNW 06:15:41 85° NNE 06:18:34 10° ESE visible
04 Oct 3.9 05:03:15 11° E 05:03:15 11° E 05:03:26 10° E visible
04 Oct 0.8 06:34:30 21° W 06:36:05 45° SSW 06:38:51 10° SE visible
05 Oct 3.1 05:23:08 18° ESE 05:23:08 18° ESE 05:24:00 10° ESE visible
05 Oct 2.1 06:54:23 11° W 06:56:20 19° SW 06:58:30 10° SSE visible
06 Oct 2.5 05:43:08 20° SE 05:43:08 20° SE 05:44:17 10° SE visible
07 Oct 2.8 06:03:17 14° S 06:03:17 14° S 06:03:57 10° SSE visible
